Temp
77 75 71 74 73 71 70 66 66 69 73 70 68 70 74 77 75 75 77 79 80 81 84 85 84 83 83 82 81 80 79 79 79 79 80 80 81 78 82 86 85 84 84 85
74 72 76 75 72 71 69 68 68 70 72 69 68 68 73 76 75 77 77 78 79 82 78 79 81 82 81 80 80 79 79 79 79 81 80 81 79 84 86 86 85 85 84 84
72 75 76 74 71 70 72 69 68 66 68 69 67 66 69 75 77 77 79 80 82 80 77 81 80 80 82 80 79 79 79 79 79 80 81 80 79 79 82 83 85 86 84 85
73 79 75 74 72 73 70 74 72 68 66 61 67 59 69 70 72 72 76 77 80 79 81 82 82 81 81 81 81 80 80 79 80 79 79 78 81 77 78 80 84 85 85 85
73 74 72 71 74 74 71 75 72 70 68 64 63 61 70 68 72 74 74 78 80 83 83 81 83 84 83 83 82 81 79 79 80 79 79 80 79 82 82 79 78 81 83 84
76 78 77 77 75 76 77 72 70 67 65 59 62 61 67 71 73 74 75 77 79 83 83 83 84 85 83 83 82 82 79 78 79 79 78 78 78 79 81 81 81 83 85 86
73 76 79 78 73 75 74 71 62 61 60 61 64 58 68 74 78 76 76 77 79 82 82 81 80 80 81 81 81 82 79 77 79 79 79 79 79 79 79 81 83 81 84 85
67 66 75 79 78 75 71 73 66 53 58 63 63 60 70 75 78 77 78 79 80 78 80 81 81 81 81 81 80 80 79 78 79 78 77 78 79 81 82 82 84 84 85 86
65 66 77 77 77 79 67 67 75 66 62 63 66 70 75 74 75 77 77 77 78 81 79 81 82 82 82 82 80 80 79 79 79 80 79 78 78 79 80 79 81 85 83 84
73 65 76 76 80 76 76 77 68 68 57 56 64 63 68 73 73 74 76 79 79 81 80 80 81 82 83 84 82 81 81 79 80 81 80 80 79 79 80 80 80 81 83 83
78 72 73 76 74 74 71 72 68 71 67 62 60 66 76 75 78 75 78 80 82 81 81 82 82 82 84 82 81 80 79 79 80 81 81 80 80 80 80 81 81 81 82 83
77 74 68 73 77 78 78 77 76 68 61 64 65 68 77 79 80 80 81 80 82 83 84 82 84 82 82 80 80 79 79 80 81 81 80 80 80 80 81 81 82 82 81 83
74 70 65 70 73 73 74 73 75 75 72 62 63 68 77 78 77 81 81 82 81 82 82 82 81 80 80 80 78 78 79 80 82 82 82 81 80 80 80 81 81 82 81 81
74 73 70 66 71 75 70 71 71 77 68 68 69 73 78 78 77 80 79 82 84 83 83 82 80 80 78 79 77 77 78 79 80 80 80 79 79 79 81 81 81 81 81 80
77 69 69 73 73 73 75 74 70 71 74 70 74 70 79 83 81 82 84 81 80 82 83 83 83 80 79 78 77 77 77 77 78 77 77 77 79 79 79 79 80 80 80 80
69 68 66 69 74 72 71 76 74 73 72 73 71 71 82 82 79 78 80 80 80 80 82 83 83 83 81 81 80 79 78 76 76 77 77 78 77 78 77 77 78 79 78 79
68 68 65 64 66 68 64 73 73 74 76 77 70 80 78 80 78 81 81 80 82 83 82 83 83 83 82 81 80 79 79 78 76 76 77 77 77 77 77 78 78 78 78 78
68 64 64 64 63 55 74 75 79 77 78 79 76 79 79 81 85 86 84 83 82 83 83 83 82 80 80 80 79 79 79 78 77 77 77 77 77 77 77 76 77 77 77 76
70 67 64 61 62 66 73 73 73 73 75 80 79 82 81 78 79 82 83 84 85 85 81 81 80 79 77 77 77 77 75 76 75 72 71 71 71 74 75 73 73 75 74 74
66 65 65 59 57 55 71 74 76 78 69 82 79 81 81 77 76 82 79 80 80 82 81 79 79 78 77 76 77 73 71 72 71 70 69 69 70 70 71 74 74 74 73 73
62 61 58 61 60 66 72 74 76 64 70 75 78 80 77 76 80 75 75 74 77 77 76 77 77 74 72 74 75 73 73 71 70 71 70 69 70 70 69 69 70 71 71 71
61 59 59 60 57 55 69 73 68 68 73 75 77 78 77 77 74 73 73 72 72 72 73 74 72 72 73 74 74 71 70 68 67 67 65 65 67 68 66 66 68 69 67 68
56 62 62 62 65 66 70 70 73 72 70 71 72 77 77 77 75 74 72 72 73 72 72 73 70 69 71 71 73 70 64 68 68 67 65 63 62 63 63 64 65 65 65 66
61 61 61 60 66 68 71 73 73 73 71 73 75 76 79 79 75 73 72 71 71 71 71 72 70 70 68 69 70 68 66 67 68 65 64 63 61 60 58 57 58 62 63 64
58 61 59 61 66 69 70 73 71 72 74 74 76 77 78 78 75 75 73 72 71 71 70 71 69 68 66 67 65 68 66 67 67 67 65 62 61 60 58 54 51 53 56 52
65 61 59 59 64 62 66 72 73 70 71 73 73 75 76 79 76 76 73 72 71 70 70 69 68 68 66 69 68 68 69 69 69 68 69 65 66 64 63 60 57 48 46 45
MSLP
1009.30 1009.07 1008.87 1009.23 1009.63 1009.85 1009.91 1009.94 1009.75 1009.67 1009.81 1010.12 1009.91 1009.56 1009.26 1009.46 1009.75 1009.67 1009.75 1010.00 1010.17 1010.20 1010.97 1011.60 1012.32 1013.04 1013.64 1014.26 1014.78 1015.17 1015.61 1016.16 1016.66 1016.90 1016.92 1017.00 1016.93 1017.21 1017.08 1016.90 1017.06 1017.18 1017.22 1017.18
1009.09 1008.44 1008.75 1009.24 1009.55 1009.61 1009.56 1009.39 1009.20 1009.38 1009.81 1010.10 1009.71 1009.05 1008.62 1008.59 1008.61 1008.71 1008.90 1009.32 1009.61 1009.79 1010.68 1011.37 1011.82 1012.48 1013.11 1013.70 1014.33 1014.80 1015.20 1015.79 1016.36 1016.59 1016.82 1016.94 1016.96 1016.82 1016.64 1016.64 1016.79 1016.87 1017.00 1017.14
1008.41 1008.48 1008.64 1008.98 1009.06 1009.02 1008.88 1008.86 1008.90 1009.30 1009.71 1010.00 1009.70 1008.14 1007.69 1007.43 1007.63 1007.97 1008.24 1008.53 1008.87 1009.36 1009.99 1010.51 1011.22 1011.89 1012.55 1013.26 1013.80 1014.31 1014.88 1015.43 1015.91 1016.29 1016.68 1016.97 1017.05 1017.01 1016.70 1016.57 1016.64 1016.56 1016.95 1017.09
1008.38 1008.19 1008.35 1008.56 1008.41 1008.62 1007.93 1008.31 1008.57 1009.05 1009.36 1009.46 1009.63 1008.18 1006.98 1006.92 1006.90 1007.15 1007.38 1007.89 1008.14 1008.74 1009.40 1009.89 1010.61 1011.30 1011.98 1012.66 1013.34 1013.95 1014.57 1015.08 1015.57 1016.15 1016.35 1016.58 1016.52 1016.64 1016.67 1016.66 1016.59 1016.67 1016.83 1016.93
1007.79 1007.76 1007.89 1007.92 1007.68 1008.09 1007.92 1008.10 1008.35 1008.79 1009.07 1009.38 1009.29 1008.90 1006.64 1006.67 1005.99 1006.02 1006.53 1006.98 1007.48 1007.94 1008.65 1009.41 1009.87 1010.49 1011.49 1012.32 1012.79 1013.52 1014.30 1014.74 1015.18 1015.74 1016.08 1016.27 1016.48 1016.44 1016.68 1016.86 1016.76 1016.85 1016.82 1016.82
1007.54 1007.72 1007.59 1007.31 1007.56 1007.78 1007.83 1008.10 1008.48 1008.91 1008.93 1008.63 1008.69 1008.56 1006.16 1005.85 1005.62 1005.48 1005.88 1006.40 1006.97 1007.47 1008.20 1008.88 1009.68 1010.28 1011.08 1011.95 1012.43 1012.95 1013.83 1014.34 1014.88 1015.43 1015.79 1016.16 1016.35 1016.44 1016.47 1016.57 1016.64 1016.60 1016.59 1016.58
1006.98 1006.66 1006.63 1006.90 1007.10 1007.62 1007.58 1007.41 1007.64 1007.91 1008.09 1007.84 1008.37 1008.26 1005.66 1005.44 1005.32 1005.21 1005.43 1005.99 1006.56 1007.22 1007.94 1008.52 1009.21 1009.89 1010.64 1011.34 1012.04 1012.63 1013.30 1013.84 1014.42 1014.91 1015.31 1015.70 1016.12 1016.38 1016.40 1016.41 1016.29 1016.33 1016.26 1016.33
1006.27 1005.74 1005.72 1005.80 1005.67 1005.95 1006.92 1006.84 1006.73 1006.90 1007.23 1007.31 1007.85 1006.70 1005.04 1005.22 1005.29 1005.18 1005.19 1005.60 1006.34 1007.04 1007.59 1008.13 1008.68 1009.39 1010.14 1010.92 1011.68 1012.25 1012.82 1013.24 1013.79 1014.43 1014.94 1015.35 1015.70 1015.96 1016.12 1016.24 1016.10 1016.06 1016.06 1016.07
1006.10 1005.58 1005.10 1005.31 1005.53 1005.67 1006.86 1006.76 1006.47 1006.54 1007.52 1006.99 1006.40 1005.47 1004.86 1005.01 1005.04 1005.04 1005.15 1005.52 1005.94 1006.48 1007.20 1007.75 1008.35 1009.03 1009.65 1010.38 1011.07 1011.69 1012.33 1012.79 1013.23 1013.64 1014.31 1014.82 1015.22 1015.48 1015.61 1015.91 1015.99 1015.78 1015.94 1016.00
1005.67 1005.50 1004.89 1005.08 1005.22 1005.73 1005.51 1005.79 1006.19 1006.22 1006.00 1005.71 1005.55 1005.15 1004.39 1004.37 1004.72 1004.96 1005.05 1005.24 1005.70 1006.23 1006.88 1007.41 1007.89 1008.45 1009.08 1009.80 1010.64 1011.30 1011.86 1012.17 1012.55 1013.25 1013.78 1014.09 1014.48 1014.88 1015.18 1015.47 1015.58 1015.65 1015.67 1015.78
1005.40 1005.60 1004.83 1004.78 1004.46 1004.43 1005.40 1005.27 1005.64 1005.60 1005.72 1005.07 1004.84 1004.20 1003.94 1003.92 1004.18 1004.55 1004.83 1005.00 1005.28 1005.84 1006.24 1006.88 1007.50 1008.16 1008.70 1009.57 1010.20 1010.77 1011.45 1011.75 1012.12 1012.59 1012.98 1013.45 1013.72 1014.11 1014.51 1014.77 1014.93 1015.09 1015.26 1015.42
1005.21 1005.05 1004.30 1003.96 1004.05 1004.26 1004.12 1003.96 1004.44 1004.50 1005.24 1005.49 1004.91 1003.92 1003.60 1003.66 1003.75 1004.21 1004.28 1004.63 1005.00 1005.30 1005.77 1006.28 1006.92 1007.72 1008.33 1008.96 1009.76 1010.35 1010.80 1011.04 1011.36 1011.84 1012.48 1012.77 1013.25 1013.62 1013.84 1014.01 1014.16 1014.47 1014.68 1014.89
1005.01 1004.85 1004.14 1003.36 1004.10 1004.32 1003.74 1003.69 1003.77 1003.89 1004.31 1004.43 1004.13 1003.43 1003.42 1003.42 1003.58 1003.74 1003.91 1004.17 1004.72 1005.15 1005.67 1006.07 1006.66 1007.22 1007.83 1008.51 1009.22 1009.87 1010.32 1010.50 1010.85 1011.39 1011.74 1012.15 1012.59 1012.97 1013.06 1013.28 1013.58 1013.76 1013.97 1014.11
1004.86 1004.31 1003.60 1002.93 1002.36 1002.64 1002.87 1003.03 1003.39 1003.17 1003.33 1003.41 1003.27 1002.77 1002.81 1002.91 1002.98 1003.19 1003.51 1003.93 1004.18 1004.67 1005.18 1005.63 1006.26 1006.81 1007.52 1008.09 1008.63 1009.16 1009.74 1010.23 1010.65 1011.00 1011.28 1011.50 1011.76 1012.12 1012.35 1012.67 1012.82 1012.96 1013.17 1013.39
1005.11 1004.36 1003.99 1003.13 1002.93 1002.88 1002.17 1002.01 1002.58 1002.64 1002.47 1002.49 1002.19 1002.51 1002.00 1001.88 1002.50 1002.44 1002.71 1003.50 1003.97 1004.31 1004.67 1005.09 1005.65 1006.34 1007.05 1007.65 1008.20 1008.82 1009.32 1009.85 1010.27 1010.58 1010.81 1010.78 1011.26 1011.60 1011.92 1012.08 1012.16 1012.38 1012.57 1012.74
1005.76 1004.88 1004.46 1003.15 1002.64 1002.66 1002.22 1001.73 1001.84 1002.32 1002.44 1002.36 1002.37 1002.16 1001.61 1001.90 1002.48 1002.70 1002.76 1003.12 1003.47 1003.89 1004.26 1004.79 1005.25 1005.65 1006.29 1006.89 1007.49 1008.10 1008.84 1009.50 1010.04 1010.17 1010.34 1010.66 1010.92 1011.19 1011.39 1011.50 1011.56 1011.92 1012.08 1012.04
1006.09 1005.40 1004.89 1003.58 1003.49 1002.70 1002.27 1001.30 1001.16 1001.34 1001.72 1001.53 1001.41 1000.92 1001.48 1001.71 1001.93 1001.95 1002.28 1002.78 1002.91 1003.28 1003.85 1004.40 1004.93 1005.36 1006.17 1006.76 1007.28 1007.80 1008.45 1009.05 1009.58 1009.95 1010.22 1010.52 1010.69 1010.86 1010.93 1011.05 1011.08 1011.18 1011.32 1011.44
1006.33 1005.97 1005.51 1004.25 1003.94 1002.48 1001.03 1001.54 1001.05 1000.38 1000.85 1001.14 1001.02 1000.84 1001.04 1001.22 1001.25 1001.57 1002.04 1002.39 1002.76 1003.12 1003.72 1004.39 1005.15 1005.82 1006.54 1007.03 1007.50 1008.01 1008.43 1008.88 1009.26 1009.66 1010.03 1010.39 1010.54 1010.49 1010.54 1010.62 1010.58 1010.58 1010.81 1010.81
1006.34 1006.14 1005.48 1004.78 1003.63 1002.60 1001.49 1001.59 1001.44 1001.00 1000.49 1000.54 1000.58 1000.56 1000.90 1001.61 1002.04 1001.57 1001.85 1002.41 1002.73 1003.34 1004.10 1004.82 1005.54 1006.09 1006.98 1007.50 1007.83 1008.21 1008.81 1009.26 1009.38 1009.96 1010.49 1010.65 1010.71 1010.56 1010.44 1010.38 1010.29 1010.21 1010.34 1010.39
1006.31 1006.35 1005.74 1005.35 1003.78 1002.49 1001.88 1001.86 1001.92 1001.53 1000.74 1000.43 1000.68 1000.55 1001.04 1001.83 1001.95 1001.51 1002.26 1002.87 1003.40 1003.87 1004.53 1005.13 1005.69 1006.38 1007.16 1007.74 1008.26 1008.64 1009.24 1009.56 1009.81 1010.08 1010.39 1010.54 1010.68 1010.71 1010.52 1010.26 1010.06 1010.00 1010.03 1009.91
1006.15 1006.15 1005.50 1004.86 1003.78 1002.86 1002.71 1002.64 1002.65 1002.39 1001.89 1001.41 1001.34 1001.11 1001.44 1001.80 1002.08 1002.88 1003.40 1003.75 1004.16 1004.61 1005.21 1005.82 1006.39 1007.08 1007.83 1008.29 1008.45 1008.91 1009.30 1009.77 1010.25 1010.38 1010.39 1010.46 1010.58 1010.54 1010.46 1010.27 1010.12 1009.98 1009.78 1009.67
1006.07 1005.85 1005.30 1005.11 1004.39 1003.74 1003.95 1003.57 1003.68 1003.82 1002.70 1002.30 1001.90 1001.67 1001.55 1002.18 1002.85 1003.53 1004.00 1004.48 1005.00 1005.45 1006.13 1006.68 1007.20 1007.76 1008.30 1008.56 1008.85 1009.35 1009.78 1010.34 1010.54 1010.56 1010.65 1010.69 1010.59 1010.58 1010.61 1010.35 1010.04 1009.74 1009.69 1009.43
1006.96 1006.35 1005.63 1005.40 1004.34 1004.43 1004.62 1004.43 1004.35 1004.40 1003.91 1003.40 1002.94 1002.26 1002.09 1002.37 1002.93 1003.76 1004.29 1004.93 1005.43 1006.09 1006.69 1007.31 1007.77 1008.37 1008.88 1009.22 1009.36 1009.70 1010.46 1010.53 1010.59 1010.70 1010.92 1011.00 1010.97 1010.95 1010.84 1010.52 1010.21 1009.98 1009.80 1009.60
1007.26 1007.32 1006.58 1005.94 1004.94 1004.76 1004.55 1004.76 1004.65 1004.59 1004.35 1003.71 1003.11 1002.66 1002.31 1002.22 1002.87 1003.62 1004.41 1005.15 1005.63 1006.39 1007.02 1007.63 1008.07 1008.61 1009.20 1009.59 1009.83 1010.05 1010.48 1010.65 1010.76 1011.04 1011.29 1011.37 1011.31 1011.23 1011.26 1011.17 1010.88 1010.40 1010.11 1009.92
1007.97 1007.67 1006.97 1006.04 1005.21 1004.77 1004.73 1004.84 1005.14 1005.03 1004.55 1003.93 1003.15 1002.76 1002.56 1002.81 1003.03 1003.44 1004.31 1005.00 1005.68 1006.43 1007.14 1007.64 1008.08 1008.65 1009.24 1009.65 1010.00 1010.16 1010.55 1010.67 1010.77 1011.09 1011.20 1011.27 1011.41 1011.34 1011.41 1011.61 1011.69 1011.11 1010.65 1010.82
1007.73 1007.33 1006.91 1005.89 1005.97 1006.11 1005.42 1005.37 1005.27 1004.94 1004.52 1004.15 1003.64 1003.14 1002.94 1002.80 1003.06 1003.66 1004.44 1005.22 1005.79 1006.45 1007.01 1007.47 1008.03 1008.45 1009.04 1009.24 1009.66 1009.99 1010.31 1010.54 1010.38 1010.95 1010.89 1011.18 1011.10 1011.18 1011.32 1011.46 1011.80 1011.61 1011.22 1010.77
Wind_Speed
2 6 10 7 7 4 5 4 7 4 4 8 13 12 15 13 12 12 12 13 14 15 10 11 12 13 12 12 13 14 13 10 8 6 7 5 4 3 4 4 4 4 5 5
5 13 5 2 5 6 7 10 7 3 1 8 4 14 16 16 17 17 17 15 14 13 10 12 13 13 14 14 14 14 14 12 10 7 5 2 2 3 3 3 3 4 6 6
7 1 6 5 5 8 7 8 3 2 1 3 8 10 8 11 17 15 16 15 15 15 15 15 15 14 13 14 15 15 14 12 11 10 5 3 2 1 3 4 2 2 5 5
5 4 8 7 11 9 11 8 6 3 1 4 3 7 5 2 7 11 15 14 15 14 13 12 14 15 15 14 13 14 14 13 11 10 8 8 6 4 1 1 1 2 4 5
5 5 6 5 6 11 1 1 3 2 3 4 3 4 3 3 5 7 13 15 15 15 14 15 16 15 14 13 13 13 13 13 12 11 9 8 7 4 2 1 1 3 4 5
9 1 4 3 2 11 10 4 5 3 3 3 2 3 5 2 3 3 1 13 15 15 15 13 12 12 13 12 12 13 13 12 13 11 11 10 9 6 5 4 4 3 3 4
3 9 4 6 5 6 5 5 1 2 2 3 1 4 10 6 8 10 6 11 15 15 13 12 14 14 14 15 14 13 14 14 14 14 12 12 11 9 9 6 5 4 3 4
5 11 8 9 12 5 8 5 3 3 4 5 3 6 1 1 6 3 2 6 13 14 13 13 14 14 14 14 14 14 14 14 14 13 12 10 11 8 7 7 5 4 4 4
6 7 2 4 3 5 6 7 2 3 1 4 3 5 6 3 0 2 4 9 13 14 13 14 13 13 13 14 15 15 15 14 14 15 13 12 11 11 9 9 7 6 5 4
4 5 2 3 6 5 6 11 4 2 4 4 1 5 5 2 5 3 4 7 9 11 12 12 12 13 12 14 12 13 14 14 14 14 12 12 12 12 11 10 10 10 8 6
9 6 4 1 6 8 6 6 3 2 3 3 4 4 5 6 6 8 7 7 10 12 12 12 12 12 12 11 12 12 13 13 13 13 14 14 13 13 12 12 12 11 10 8
10 4 9 13 3 3 3 5 10 6 5 1 4 5 2 7 5 7 9 9 8 9 10 11 11 11 11 11 12 14 13 13 14 13 12 13 12 12 12 13 13 11 11 10
10 7 6 5 6 3 7 6 5 4 4 7 6 3 2 7 8 9 10 8 9 9 8 8 9 11 12 12 11 11 12 14 13 12 12 12 12 12 13 13 12 12 12 12
8 5 7 11 9 2 6 7 9 11 6 7 9 6 6 10 11 9 9 10 10 8 9 9 8 10 9 10 10 11 11 11 11 11 12 12 13 13 13 12 12 12 12 11
6 6 6 13 11 6 8 10 14 13 9 10 7 9 12 10 10 11 8 8 8 8 8 8 9 8 9 10 9 9 9 9 10 11 12 13 11 11 11 12 12 11 11 10
2 3 3 6 8 10 12 12 14 11 7 7 6 9 9 5 4 7 10 5 7 7 8 8 8 8 9 10 9 8 8 9 9 10 11 9 9 10 11 13 13 11 12 11
3 2 2 9 7 4 9 16 18 12 8 10 9 8 6 5 9 12 11 10 11 10 8 10 10 7 4 4 4 5 6 7 7 6 5 6 7 9 10 11 11 13 13 12
5 1 2 3 2 11 7 3 10 19 15 15 6 7 9 9 9 9 9 11 11 10 9 7 5 7 7 6 6 6 6 5 5 3 2 4 5 7 8 10 12 13 11 14
12 5 5 6 8 6 8 5 6 11 15 14 13 11 7 3 3 11 10 11 11 8 4 6 7 9 8 8 8 9 8 6 7 6 3 3 3 4 5 9 10 10 9 11
6 7 8 4 8 12 5 3 1 1 8 7 11 10 7 6 5 7 3 7 7 7 7 9 10 10 9 8 8 9 7 5 4 3 2 3 4 5 6 8 8 7 8 11
4 4 12 12 12 7 3 3 1 7 1 1 6 8 8 7 1 4 7 8 8 8 10 11 10 9 8 7 7 7 5 5 3 2 4 5 5 6 6 6 6 7 7 8
9 6 7 6 8 13 5 2 6 6 9 7 7 6 9 6 7 7 8 10 12 14 13 11 10 9 7 6 5 5 5 4 3 3 3 5 6 5 4 6 6 7 5 8
6 4 5 6 1 3 3 6 8 8 13 11 11 6 7 10 8 10 11 12 12 12 11 10 10 9 6 5 5 7 5 4 4 4 3 4 4 4 6 5 4 4 4 4
2 0 4 4 3 5 8 7 8 8 12 16 13 11 11 11 13 13 12 12 12 11 10 9 10 10 9 6 6 8 6 5 5 5 4 3 3 4 5 4 4 3 2 3
2 3 4 6 7 6 4 13 8 10 12 14 10 7 8 9 11 14 13 12 11 10 9 9 8 8 9 8 7 7 6 6 6 6 6 5 3 4 4 5 4 3 1 3
8 10 8 9 5 6 16 12 12 14 13 12 9 6 5 7 10 10 10 9 10 10 10 9 8 8 9 8 8 7 6 5 6 5 5 4 4 4 2 3 3 8 7 9
Wind_Direction
139 215 224 225 220 248 280 284 301 262 207 208 226 246 234 211 215 226 221 216 224 232 225 198 192 181 185 189 188 190 189 190 183 188 189 202 225 213 225 235 221 228 240 212
177 236 221 146 211 243 267 289 298 270 171 220 272 258 247 234 222 219 218 213 217 235 195 188 183 184 185 187 193 192 196 186 189 194 194 185 207 233 240 231 252 241 226 199
225 136 118 198 233 260 267 275 284 351 70 224 293 270 229 237 233 222 227 224 210 213 201 193 185 189 187 191 191 193 195 197 193 198 196 198 163 237 232 211 206 165 181 191
260 237 244 249 270 226 293 243 266 189 300 331 335 303 268 237 243 225 224 210 201 200 206 199 187 187 190 193 192 196 194 200 202 194 198 208 214 200 198 249 96 132 203 213
219 202 188 215 261 181 253 46 177 230 266 289 200 258 270 313 274 231 216 207 205 197 195 198 198 192 188 186 187 192 196 197 200 200 207 204 221 222 186 195 290 228 219 222
255 194 223 235 184 190 160 94 78 84 320 268 41 258 273 248 262 294 191 202 197 195 195 200 204 190 183 186 187 188 192 198 198 204 201 208 220 229 235 233 249 241 241 226
242 244 213 184 183 195 206 182 313 250 227 323 291 225 265 288 288 289 280 203 191 191 196 192 191 193 186 187 186 190 193 200 205 208 207 207 216 226 237 238 247 266 256 243
263 259 208 181 224 214 188 227 234 280 304 328 178 242 269 75 319 291 245 199 186 187 187 194 196 196 193 190 189 192 194 200 199 207 214 211 213 222 232 234 247 260 266 273
190 249 266 211 161 190 145 204 333 164 136 257 349 273 263 91 255 46 113 157 182 191 193 196 195 201 196 193 193 195 198 202 204 205 207 211 214 219 227 238 246 251 255 247
190 264 192 110 149 76 212 140 177 189 229 265 208 286 295 203 186 191 171 178 182 194 193 193 197 199 200 201 197 198 203 209 204 207 213 216 215 218 228 231 235 243 252 242
185 224 226 286 209 189 156 192 84 125 303 279 292 315 217 255 190 197 193 198 187 197 195 196 201 202 200 193 194 200 206 208 209 209 210 216 217 218 220 230 233 233 241 238
205 229 253 245 154 264 241 218 193 235 192 34 314 273 235 243 228 191 203 193 196 197 202 198 197 193 197 200 196 201 209 212 214 212 212 216 221 219 220 226 229 232 233 237
169 216 249 234 161 156 219 179 197 152 134 196 239 236 237 264 255 223 217 198 202 195 189 186 192 194 199 199 200 202 206 218 218 217 218 220 218 219 222 227 230 231 230 229
180 193 220 240 251 113 180 190 193 217 214 192 230 249 218 222 237 231 213 201 214 209 189 190 195 199 202 203 199 201 210 214 213 213 220 226 222 219 222 228 225 224 227 231
210 255 208 253 268 255 236 189 186 207 204 206 229 218 257 259 237 233 216 191 200 209 206 198 190 189 195 198 202 202 206 202 204 210 217 225 229 226 229 228 228 229 229 230
354 250 245 267 264 233 245 222 194 215 179 233 194 244 241 272 209 241 249 237 216 214 207 207 207 196 198 201 197 189 188 193 196 211 225 224 220 223 229 237 236 227 227 220
298 269 243 259 337 197 245 217 187 191 210 218 197 229 166 225 226 233 227 217 223 225 220 204 205 195 206 211 180 186 180 173 186 207 224 228 219 222 228 238 241 231 224 224
263 253 262 278 191 227 230 336 242 189 202 210 255 234 199 234 242 250 226 225 229 228 221 214 162 125 122 121 123 118 118 137 138 127 195 231 231 236 238 240 240 237 231 231
217 236 237 247 236 303 283 161 192 195 221 209 223 238 239 181 264 260 220 217 229 220 169 144 131 121 127 124 117 108 93 88 96 85 71 27 346 277 241 242 246 247 223 229
174 239 241 193 241 250 242 136 57 209 236 211 221 238 213 148 219 242 135 163 144 137 142 135 126 121 116 109 119 107 109 108 88 58 333 319 302 289 279 269 264 257 241 244
198 193 226 225 239 245 312 318 197 214 234 48 247 247 170 198 249 75 126 112 108 116 119 117 122 114 118 120 112 113 123 97 78 23 341 323 304 275 273 278 275 271 264 243
215 215 217 215 235 240 29 224 237 354 312 315 303 242 203 156 122 120 117 118 123 121 125 124 119 118 119 117 119 123 107 102 98 65 15 330 325 303 289 281 272 265 265 254
242 264 265 237 227 44 315 288 315 312 295 304 310 309 179 153 150 144 132 132 131 130 131 132 130 129 126 138 152 136 120 109 98 69 25 345 331 324 321 303 296 278 267 269
207 239 266 282 146 301 323 345 328 329 320 310 289 277 200 176 154 142 136 140 135 136 139 141 139 142 139 135 118 112 117 103 98 93 74 25 20 10 9 347 331 313 299 286
352 303 318 287 289 317 127 351 345 329 325 334 310 253 218 169 150 146 145 142 138 141 147 153 145 146 140 141 136 129 128 120 104 96 84 65 46 54 61 51 356 327 52 300
255 260 261 277 329 317 295 315 326 323 323 334 319 286 196 179 147 142 132 138 145 153 156 153 152 151 157 152 146 150 147 145 118 106 92 80 74 62 48 59 45 41 53 33